Regional Weather Roundup
Issued by NWS Little Rock, AR

Home | Current Version | Previous Version | Graphics & Text | Print | Product List | Glossary On
Versions: 1 2 3 4 5 6 7 8 9 10 11 12 13 14 15 16 17 18 19 20 21 22 23 24 25 26 27 28 29 30 31 32
000
ASUS44 KLZK 210405
RWRLZK

WEATHER ROUNDUP FOR ARKANSAS
NATIONAL WEATHER SERVICE LITTLE ROCK AR
1100 PM CDT FRI OCT 20 2017

NOTE: "FAIR" INDICATES FEW OR NO CLOUDS BELOW 12,000 FEET WITH NO
SIGNIFICANT WEATHER AND/OR OBSTRUCTIONS TO VISIBILITY.

ARZ001-003-010-029-210500-
NORTHWEST ARKANSAS

CITY           SKY/WX    TMP DP  RH WIND       PRES   REMARKS
FAYETTEVILLE   CLEAR     64  57  78 SE8       29.98S
FORT SMITH     MOCLDY    67  59  75 E10       30.00R
HARRISON       MOCLDY    64  59  83 SE13G20   30.01S
BENTONVILLE    PTCLDY    63  56  78 SE12      29.99
ROGERS         PTCLDY    63  57  81 SE8       29.98F
SILOAM SPGS    PTCLDY    65  56  72 SE16      29.97F
HIGHFILL       PTCLDY    63  57  81 S12       29.97F
$$

ARZ004-005-016-210500-
NORTH CENTRAL ARKANSAS

CITY           SKY/WX    TMP DP  RH WIND       PRES   REMARKS
BATESVILLE     PTCLDY    63  55  75 SE3       30.07F
FLIPPIN        CLOUDY    66  58  75 VRB7      30.02F
MTN HOME       CLOUDY    65  58  78 S8        30.02F
$$

ARZ040-041-210500-
WEST CENTRAL ARKANSAS

CITY           SKY/WX    TMP DP  RH WIND       PRES   REMARKS
MENA           CLOUDY    63  63 100 CALM      30.04R
$$

ARZ009-017-025-026-028-210500-
NORTHEAST ARKANSAS

CITY           SKY/WX    TMP DP  RH WIND       PRES   REMARKS
CORNING        FAIR      59  54  82 SE6       30.09F HAZE
JONESBORO      CLOUDY    62  54  74 E3        30.09F
NEWPORT        CLOUDY    61  55  81 SE8       30.08F
WALNUT RIDGE   CLOUDY    61  53  75 SE7       30.08S
BLYTHEVILLE    PTCLDY    61  55  81 SE7       30.11F
$$

ARZ022-023-033-042-044-210500-
CENTRAL ARKANSAS

CITY           SKY/WX    TMP DP  RH WIND       PRES   REMARKS
LITTLE ROCK    MOCLDY    63  57  81 CALM      30.06S
N LITTLE ROCK    N/A     64  56  77 SE6       30.07S
JACKSONVILLE   CLOUDY    60  57  90 CALM      30.05S
SEARCY         MOCLDY    62  61  96 SE3       30.07S
HOT SPRINGS    CLEAR     61  60  97 E6        30.06R
RUSSELLVILLE   CLEAR     62  60  93 CALM      30.03S
CLINTON        MOCLDY    59  57  94 CALM      30.06S FOG
$$

ARZ036-210500-
EAST ARKANSAS

CITY           SKY/WX    TMP DP  RH WIND       PRES   REMARKS
WEST MEMPHIS   PTCLDY    61  56  83 SE6       30.09S
$$

ARZ050-053-066-070-073-210500-
SOUTHWEST ARKANSAS

CITY           SKY/WX    TMP DP  RH WIND       PRES   REMARKS
ARKADELPHIA    FAIR      57  56  96 N3        30.05S
CAMDEN         CLEAR     59  55  88 CALM      30.04S
TEXARKANA      CLEAR     64  61  90 SE5       30.02F
EL DORADO      CLEAR     60  60 100 E3        30.04F
DE QUEEN       CLEAR     63  60  90 E5        30.01S
$$

ARZ056-057-069-210500-
SOUTHEAST ARKANSAS

CITY           SKY/WX    TMP DP  RH WIND       PRES   REMARKS
PINE BLUFF     CLOUDY    59  55  87 SE5       30.06S
STUTTGART      CLOUDY    64  57  78 E7        30.08R
MONTICELLO     PTCLDY    64  59  83 CALM      30.07S

$$






USA.gov is the U.S. government's official web portal to all federal, state and local government web resources and services.